Time,TemperatureF,DewpointF,PressureIn,WindDirection,WindDirectionDegrees,WindSpeedMPH,WindSpeedGustMPH,Humidity,HourlyPrecipIn,Conditions,Clouds,dailyrainin,SoftwareType,DateUTC
2013-05-12 00:03:00,54.2,-1.2,29.92,SSE,158,1.1,1.1,1,0.00,,,0.00,WUHU216HW,2013-05-12 04:03:00,
2013-05-12 00:08:00,54.2,-1.2,29.92,NW,315,1.3,1.3,1,0.00,,,0.00,WUHU216HW,2013-05-12 04:08:00,
2013-05-12 00:13:00,54.0,-1.3,29.92,WSW,248,0.4,1.3,1,0.00,,,0.00,WUHU216HW,2013-05-12 04:13:00,
2013-05-12 00:18:00,54.0,-1.3,29.92,SW,225,0.0,0.4,1,0.00,,,0.00,WUHU216HW,2013-05-12 04:18:00,
2013-05-12 00:23:00,54.0,-1.3,29.93,NNW,338,0.0,0.9,1,0.00,,,0.00,WUHU216HW,2013-05-12 04:23:00,
2013-05-12 00:28:00,54.0,-1.3,29.93,WNW,293,0.0,0.9,1,0.00,,,0.00,WUHU216HW,2013-05-12 04:28:00,
2013-05-12 00:33:00,53.8,-1.4,29.92,WNW,293,0.0,1.1,1,0.00,,,0.00,WUHU216HW,2013-05-12 04:33:00,
2013-05-12 00:38:00,53.6,-1.6,29.93,NW,315,0.0,1.1,1,0.00,,,0.00,WUHU216HW,2013-05-12 04:38:00,
2013-05-12 00:43:00,53.6,-1.6,29.92,WNW,293,0.0,0.7,1,0.00,,,0.00,WUHU216HW,2013-05-12 04:43:00,
2013-05-12 00:48:00,53.5,-1.8,29.92,WNW,293,0.0,0.7,1,0.00,,,0.00,WUHU216HW,2013-05-12 04:48:00,
2013-05-12 00:53:00,53.3,-1.9,29.92,WNW,293,0.0,0.0,1,0.00,,,0.00,WUHU216HW,2013-05-12 04:53:00,
2013-05-12 00:58:00,53.1,-2.1,29.92,WNW,293,0.4,0.4,1,0.00,,,0.00,WUHU216HW,2013-05-12 04:58:00,
2013-05-12 01:03:00,52.9,-2.1,29.90,NNW,338,0.0,0.4,1,0.00,,,0.00,WUHU216HW,2013-05-12 05:03:00,
2013-05-12 01:08:00,52.7,-2.3,29.91,ESE,113,0.0,0.7,1,0.00,,,0.00,WUHU216HW,2013-05-12 05:08:00,
2013-05-12 01:13:00,52.6,-2.5,29.90,NW,315,0.4,0.7,1,0.00,,,0.00,WUHU216HW,2013-05-12 05:13:00,
2013-05-12 01:18:00,52.4,-2.6,29.90,WNW,293,0.0,0.7,1,0.00,,,0.00,WUHU216HW,2013-05-12 05:18:00,
2013-05-12 01:23:00,52.0,-2.9,29.90,SSE,158,0.0,1.1,1,0.00,,,0.00,WUHU216HW,2013-05-12 05:23:00,
2013-05-12 01:28:00,52.0,-2.9,29.91,SE,135,0.0,1.1,1,0.00,,,0.00,WUHU216HW,2013-05-12 05:28:00,
2013-05-12 01:33:00,51.8,-3.1,29.90,SSE,158,0.4,0.9,1,0.00,,,0.00,WUHU216HW,2013-05-12 05:33:00,
2013-05-12 01:38:00,51.7,-3.2,29.89,SSE,158,0.4,0.9,1,0.00,,,0.00,WUHU216HW,2013-05-12 05:38:00,
2013-05-12 01:43:00,51.5,-3.3,29.90,SE,135,0.4,1.6,1,0.00,,,0.00,WUHU216HW,2013-05-12 05:43:00,
2013-05-12 01:48:00,51.5,-3.3,29.90,SSW,203,0.0,2.0,1,0.00,,,0.00,WUHU216HW,2013-05-12 05:48:00,
2013-05-12 01:53:00,51.1,-3.6,29.91,NW,315,0.0,2.0,1,0.00,,,0.00,WUHU216HW,2013-05-12 05:53:00,
2013-05-12 01:58:00,51.1,-3.6,29.91,NW,315,0.0,0.7,1,0.00,,,0.00,WUHU216HW,2013-05-12 05:58:00,
2013-05-12 02:03:00,50.9,-3.8,29.91,NW,315,0.0,0.0,1,0.00,,,0.00,WUHU216HW,2013-05-12 06:03:00,
2013-05-12 02:08:00,50.8,-4.0,29.90,WNW,293,0.0,0.4,1,0.00,,,0.00,WUHU216HW,2013-05-12 06:08:00,
2013-05-12 02:13:00,50.6,-4.0,29.90,NNW,338,0.0,0.7,1,0.00,,,0.00,WUHU216HW,2013-05-12 06:13:00,
2013-05-12 02:18:00,50.6,-4.0,29.90,West,270,0.4,0.9,1,0.00,,,0.00,WUHU216HW,2013-05-12 06:18:00,
2013-05-12 02:23:00,50.4,-4.2,29.90,North,0,0.4,0.9,1,0.00,,,0.00,WUHU216HW,2013-05-12 06:23:00,
2013-05-12 02:28:00,50.4,-4.2,29.89,SE,135,0.4,0.9,1,0.00,,,0.00,WUHU216HW,2013-05-12 06:28:00,
2013-05-12 02:33:00,50.4,-4.2,29.89,NW,315,0.0,0.9,1,0.00,,,0.00,WUHU216HW,2013-05-12 06:33:00,
2013-05-12 02:38:00,50.2,-4.3,29.90,NNE,23,0.7,1.1,1,0.00,,,0.00,WUHU216HW,2013-05-12 06:38:00,
2013-05-12 02:43:00,50.2,-4.3,29.91,West,270,0.0,1.1,1,0.00,,,0.00,WUHU216HW,2013-05-12 06:43:00,
2013-05-12 02:48:00,50.0,-4.5,29.90,WNW,293,0.2,1.1,1,0.00,,,0.00,WUHU216HW,2013-05-12 06:48:00,
2013-05-12 02:53:00,50.0,-4.5,29.90,NW,315,0.0,0.9,1,0.00,,,0.00,WUHU216HW,2013-05-12 06:53:00,
2013-05-12 02:58:00,50.0,-4.5,29.89,SW,225,0.2,1.8,1,0.00,,,0.00,WUHU216HW,2013-05-12 06:58:00,
2013-05-12 03:03:00,49.9,-4.6,29.90,SE,135,0.2,1.8,1,0.00,,,0.00,WUHU216HW,2013-05-12 07:03:00,
2013-05-12 03:08:00,49.7,-4.8,29.90,SSE,158,0.0,1.6,1,0.00,,,0.00,WUHU216HW,2013-05-12 07:08:00,
2013-05-12 03:13:00,49.7,-4.8,29.89,SE,135,0.0,1.6,1,0.00,,,0.00,WUHU216HW,2013-05-12 07:13:00,
2013-05-12 03:18:00,49.5,-4.8,29.89,SW,225,0.0,0.7,1,0.00,,,0.00,WUHU216HW,2013-05-12 07:18:00,
2013-05-12 03:23:00,49.5,-4.8,29.90,ESE,113,0.0,0.9,1,0.00,,,0.00,WUHU216HW,2013-05-12 07:23:00,
2013-05-12 03:28:00,49.3,-5.0,29.89,NW,315,0.2,0.9,1,0.00,,,0.00,WUHU216HW,2013-05-12 07:28:00,
2013-05-12 03:33:00,49.3,-5.0,29.89,South,180,0.2,1.1,1,0.00,,,0.00,WUHU216HW,2013-05-12 07:33:00,
2013-05-12 03:38:00,49.3,-5.0,29.89,SSE,158,0.7,1.1,1,0.00,,,0.00,WUHU216HW,2013-05-12 07:38:00,
2013-05-12 03:43:00,49.3,-5.0,29.89,SW,225,0.2,1.1,1,0.00,,,0.00,WUHU216HW,2013-05-12 07:43:00,
2013-05-12 03:48:00,49.3,-5.0,29.89,WNW,293,0.2,0.4,1,0.00,,,0.00,WUHU216HW,2013-05-12 07:48:00,
2013-05-12 03:53:00,49.3,-5.0,29.88,WNW,293,0.0,1.1,1,0.00,,,0.00,WUHU216HW,2013-05-12 07:53:00,
2013-05-12 03:58:00,49.0,-5.2,29.88,SSE,158,0.2,1.3,1,0.00,,,0.00,WUHU216HW,2013-05-12 07:58:00,
2013-05-12 04:03:00,49.0,-5.2,29.88,ESE,113,0.0,1.8,1,0.00,,,0.00,WUHU216HW,2013-05-12 08:03:00,
2013-05-12 04:08:00,48.8,-5.4,29.88,SSW,203,0.0,1.8,1,0.00,,,0.00,WUHU216HW,2013-05-12 08:08:00,
2013-05-12 04:13:00,48.8,-5.4,29.89,West,270,0.0,1.8,1,0.00,,,0.00,WUHU216HW,2013-05-12 08:13:00,
2013-05-12 04:18:00,48.8,-5.4,29.88,South,180,0.0,1.1,1,0.00,,,0.00,WUHU216HW,2013-05-12 08:18:00,
2013-05-12 04:23:00,48.8,-5.4,29.88,SE,135,0.4,1.1,1,0.00,,,0.00,WUHU216HW,2013-05-12 08:23:00,
2013-05-12 04:28:00,48.6,-5.5,29.88,SSE,158,0.4,2.2,1,0.00,,,0.00,WUHU216HW,2013-05-12 08:28:00,
2013-05-12 04:33:00,48.6,-5.5,29.88,East,90,0.9,2.2,1,0.00,,,0.00,WUHU216HW,2013-05-12 08:33:00,
2013-05-12 04:38:00,48.6,-5.5,29.87,West,270,0.0,1.6,1,0.00,,,0.00,WUHU216HW,2013-05-12 08:38:00,
2013-05-12 04:43:00,48.6,-5.5,29.87,SW,225,0.0,1.6,1,0.00,,,0.00,WUHU216HW,2013-05-12 08:43:00,
2013-05-12 04:48:00,48.6,-5.5,29.88,North,0,0.4,1.1,1,0.00,,,0.00,WUHU216HW,2013-05-12 08:48:00,
2013-05-12 04:53:00,48.6,-5.5,29.88,West,270,0.4,1.1,1,0.00,,,0.00,WUHU216HW,2013-05-12 08:53:00,
2013-05-12 04:58:00,48.6,-5.5,29.87,NW,315,1.1,1.1,1,0.00,,,0.00,WUHU216HW,2013-05-12 08:58:00,
2013-05-12 05:03:00,48.6,-5.5,29.88,West,270,0.7,1.1,1,0.00,,,0.00,WUHU216HW,2013-05-12 09:03:00,
2013-05-12 05:08:00,48.4,-5.7,29.88,NNW,338,0.2,1.6,1,0.00,,,0.00,WUHU216HW,2013-05-12 09:08:00,
2013-05-12 05:13:00,48.4,-5.7,29.88,North,0,1.3,1.6,1,0.00,,,0.00,WUHU216HW,2013-05-12 09:13:00,
2013-05-12 05:18:00,48.2,-5.8,29.88,SSW,203,0.7,1.3,1,0.00,,,0.00,WUHU216HW,2013-05-12 09:18:00,
2013-05-12 05:24:00,48.2,-5.8,29.88,North,0,0.4,1.3,1,0.00,,,0.00,WUHU216HW,2013-05-12 09:24:00,
2013-05-12 05:29:00,48.1,-5.9,29.87,NNW,338,0.4,2.0,1,0.00,,,0.00,WUHU216HW,2013-05-12 09:29:00,
2013-05-12 05:34:00,48.1,-5.9,29.89,North,0,1.1,3.4,1,0.00,,,0.00,WUHU216HW,2013-05-12 09:34:00,
2013-05-12 05:39:00,48.1,-5.9,29.88,West,270,1.1,3.4,1,0.00,,,0.00,WUHU216HW,2013-05-12 09:39:00,
2013-05-12 05:44:00,48.1,-5.9,29.88,NNW,338,0.7,1.3,1,0.00,,,0.00,WUHU216HW,2013-05-12 09:44:00,
2013-05-12 05:49:00,47.9,-6.0,29.89,NW,315,1.8,1.8,1,0.00,,,0.00,WUHU216HW,2013-05-12 09:49:00,
2013-05-12 05:54:00,47.9,-6.0,29.89,NW,315,0.4,1.8,1,0.00,,,0.00,WUHU216HW,2013-05-12 09:54:00,
2013-05-12 05:59:00,47.7,-6.2,29.90,NNW,338,0.9,1.1,1,0.00,,,0.00,WUHU216HW,2013-05-12 09:59:00,
2013-05-12 06:04:00,47.5,-6.3,29.90,NNE,23,1.1,1.1,1,0.00,,,0.00,WUHU216HW,2013-05-12 10:04:00,
2013-05-12 06:09:00,47.5,-6.3,29.90,SSW,203,0.4,1.1,1,0.00,,,0.00,WUHU216HW,2013-05-12 10:09:00,
2013-05-12 06:14:00,47.3,-6.5,29.91,NW,315,0.4,0.9,1,0.00,,,0.00,WUHU216HW,2013-05-12 10:14:00,
2013-05-12 06:19:00,47.3,-6.5,29.91,NNW,338,0.7,1.1,1,0.00,,,0.00,WUHU216HW,2013-05-12 10:19:00,
2013-05-12 06:24:00,47.2,-6.7,29.91,NW,315,0.0,1.1,1,0.00,,,0.00,WUHU216HW,2013-05-12 10:24:00,
2013-05-12 06:29:00,47.2,-6.7,29.90,WNW,293,0.7,0.7,1,0.00,,,0.00,WUHU216HW,2013-05-12 10:29:00,
2013-05-12 06:34:00,47.2,-6.7,29.90,NW,315,0.0,0.7,1,0.00,,,0.00,WUHU216HW,2013-05-12 10:34:00,
2013-05-12 06:39:00,47.0,-6.7,29.91,West,270,0.2,0.4,1,0.00,,,0.00,WUHU216HW,2013-05-12 10:39:00,
2013-05-12 06:44:00,46.8,-6.9,29.90,NNW,338,0.2,1.1,1,0.00,,,0.00,WUHU216HW,2013-05-12 10:44:00,
2013-05-12 06:49:00,46.8,-6.9,29.91,SSE,158,0.0,1.1,1,0.00,,,0.00,WUHU216HW,2013-05-12 10:49:00,
2013-05-12 06:54:00,46.8,-6.9,29.92,SSW,203,0.0,0.2,1,0.00,,,0.00,WUHU216HW,2013-05-12 10:54:00,
2013-05-12 06:59:00,46.6,-7.0,29.92,West,270,0.0,1.1,1,0.00,,,0.00,WUHU216HW,2013-05-12 10:59:00,
2013-05-12 07:04:00,46.6,-7.0,29.92,WSW,248,0.2,1.1,1,0.00,,,0.00,WUHU216HW,2013-05-12 11:04:00,
2013-05-12 07:09:00,46.4,-7.2,29.92,WSW,248,0.0,0.4,1,0.00,,,0.00,WUHU216HW,2013-05-12 11:09:00,
2013-05-12 07:14:00,46.4,-7.2,29.92,WNW,293,1.6,1.6,1,0.00,,,0.00,WUHU216HW,2013-05-12 11:14:00,
2013-05-12 07:19:00,46.4,-7.2,29.92,NW,315,0.0,1.6,1,0.00,,,0.00,WUHU216HW,2013-05-12 11:19:00,
2013-05-12 07:24:00,46.4,-7.2,29.92,WNW,293,0.2,1.1,1,0.00,,,0.00,WUHU216HW,2013-05-12 11:24:00,
2013-05-12 07:29:00,46.4,-7.2,29.92,WNW,293,0.0,1.6,1,0.00,,,0.00,WUHU216HW,2013-05-12 11:29:00,
2013-05-12 07:34:00,46.6,-7.0,29.91,WNW,293,0.2,1.6,1,0.00,,,0.00,WUHU216HW,2013-05-12 11:34:00,
2013-05-12 07:39:00,46.8,-6.9,29.92,NW,315,0.2,1.1,1,0.00,,,0.00,WUHU216HW,2013-05-12 11:39:00,
2013-05-12 07:44:00,46.8,-6.9,29.92,North,0,0.4,1.1,1,0.00,,,0.00,WUHU216HW,2013-05-12 11:44:00,
2013-05-12 07:49:00,47.2,-6.7,29.92,WNW,293,0.4,1.1,1,0.00,,,0.00,WUHU216HW,2013-05-12 11:49:00,
2013-05-12 07:54:00,47.3,-6.5,29.92,NNW,338,0.7,1.1,1,0.00,,,0.00,WUHU216HW,2013-05-12 11:54:00,
2013-05-12 07:59:00,47.5,-6.3,29.93,SE,135,0.7,1.1,1,0.00,,,0.00,WUHU216HW,2013-05-12 11:59:00,
2013-05-12 08:04:00,47.7,-6.2,29.93,NNW,338,0.2,1.1,1,0.00,,,0.00,WUHU216HW,2013-05-12 12:04:00,
2013-05-12 08:09:00,47.9,-6.0,29.93,North,0,0.7,0.9,1,0.00,,,0.00,WUHU216HW,2013-05-12 12:09:00,
2013-05-12 08:14:00,48.1,-5.9,29.93,NW,315,0.2,0.9,1,0.00,,,0.00,WUHU216HW,2013-05-12 12:14:00,
2013-05-12 08:19:00,48.2,-5.8,29.95,South,180,0.0,0.7,1,0.00,,,0.00,WUHU216HW,2013-05-12 12:19:00,
2013-05-12 08:24:00,48.6,-5.5,29.93,SE,135,0.4,0.7,1,0.00,,,0.00,WUHU216HW,2013-05-12 12:24:00,
2013-05-12 08:29:00,48.8,-5.4,29.94,North,0,0.0,0.4,1,0.00,,,0.00,WUHU216HW,2013-05-12 12:29:00,
2013-05-12 08:34:00,49.1,-5.1,29.94,West,270,2.2,2.2,1,0.00,,,0.00,WUHU216HW,2013-05-12 12:34:00,
2013-05-12 08:39:00,49.3,-5.0,29.94,NNE,23,0.7,2.2,1,0.00,,,0.00,WUHU216HW,2013-05-12 12:39:00,
2013-05-12 08:44:00,49.3,-5.0,29.94,NNW,338,0.7,2.9,1,0.00,,,0.00,WUHU216HW,2013-05-12 12:44:00,
2013-05-12 08:49:00,49.7,-4.8,29.94,NW,315,1.1,2.9,1,0.00,,,0.00,WUHU216HW,2013-05-12 12:49:00,
2013-05-12 08:54:00,49.7,-4.8,29.94,NNW,338,0.7,1.6,1,0.00,,,0.00,WUHU216HW,2013-05-12 12:54:00,
2013-05-12 08:59:00,49.9,-4.6,29.94,North,0,0.2,1.8,1,0.00,,,0.00,WUHU216HW,2013-05-12 12:59:00,
2013-05-12 09:04:00,50.0,-4.5,29.94,North,0,1.1,1.8,1,0.00,,,0.00,WUHU216HW,2013-05-12 13:04:00,
2013-05-12 09:09:00,50.0,-4.5,29.94,WNW,293,0.0,1.8,1,0.00,,,0.00,WUHU216HW,2013-05-12 13:09:00,
2013-05-12 09:14:00,50.2,-4.3,29.94,NNE,23,0.4,1.6,1,0.00,,,0.00,WUHU216HW,2013-05-12 13:14:00,
2013-05-12 09:19:00,50.4,-4.2,29.95,NW,315,0.0,1.6,1,0.00,,,0.00,WUHU216HW,2013-05-12 13:19:00,
2013-05-12 09:24:00,50.6,-4.0,29.94,NW,315,1.1,2.5,1,0.00,,,0.00,WUHU216HW,2013-05-12 13:24:00,
2013-05-12 09:29:00,50.6,-4.0,29.94,SE,135,2.5,2.5,1,0.00,,,0.00,WUHU216HW,2013-05-12 13:29:00,
2013-05-12 09:34:00,50.8,-4.0,29.94,NW,315,1.1,2.5,1,0.00,,,0.00,WUHU216HW,2013-05-12 13:34:00,
2013-05-12 09:39:00,50.8,-4.0,29.94,NW,315,1.8,1.8,1,0.00,,,0.00,WUHU216HW,2013-05-12 13:39:00,
2013-05-12 09:44:00,50.8,-4.0,29.94,NNE,23,1.6,2.2,1,0.00,,,0.00,WUHU216HW,2013-05-12 13:44:00,
2013-05-12 09:49:00,50.8,-4.0,29.96,West,270,1.3,2.2,2,0.00,,,0.00,WUHU216HW,2013-05-12 13:49:00,
2013-05-12 09:54:00,50.8,-4.0,29.94,WNW,293,1.8,2.0,3,0.00,,,0.00,WUHU216HW,2013-05-12 13:54:00,
2013-05-12 09:59:00,50.9,-3.8,29.96,WNW,293,1.3,2.7,8,0.00,,,0.00,WUHU216HW,2013-05-12 13:59:00,
2013-05-12 10:04:00,51.1,-3.6,29.94,North,0,0.2,2.7,7,0.00,,,0.00,WUHU216HW,2013-05-12 14:04:00,
2013-05-12 10:09:00,51.3,-3.5,29.95,WNW,293,1.6,1.8,9,0.00,,,0.00,WUHU216HW,2013-05-12 14:09:00,
2013-05-12 10:14:00,51.5,-0.4,29.94,NE,45,1.1,1.6,12,0.00,,,0.00,WUHU216HW,2013-05-12 14:14:00,
2013-05-12 10:19:00,51.7,4.3,29.94,NE,45,0.7,1.1,15,0.00,,,0.00,WUHU216HW,2013-05-12 14:19:00,
2013-05-12 10:24:00,51.8,7.6,29.95,North,0,1.1,2.0,17,0.00,,,0.00,WUHU216HW,2013-05-12 14:24:00,
2013-05-12 10:29:00,52.0,12.3,29.94,NNE,23,0.2,2.0,20,0.00,,,0.00,WUHU216HW,2013-05-12 14:29:00,
2013-05-12 10:34:00,52.2,17.0,29.95,NW,315,0.7,1.8,25,0.00,,,0.00,WUHU216HW,2013-05-12 14:34:00,
2013-05-12 10:39:00,52.6,21.2,29.94,NW,315,0.4,3.8,29,0.00,,,0.00,WUHU216HW,2013-05-12 14:39:00,
2013-05-12 10:44:00,52.2,26.6,29.95,NW,315,2.0,3.8,37,0.00,,,0.00,WUHU216HW,2013-05-12 14:44:00,
2013-05-12 10:49:00,52.6,26.2,29.96,WNW,293,1.8,2.0,36,0.00,,,0.00,WUHU216HW,2013-05-12 14:49:00,
2013-05-12 10:54:00,52.9,28.5,29.95,NNW,338,1.1,1.8,39,0.00,,,0.00,WUHU216HW,2013-05-12 14:54:00,
2013-05-12 10:59:00,53.1,31.1,29.96,NE,45,1.8,2.5,43,0.00,,,0.00,WUHU216HW,2013-05-12 14:59:00,
2013-05-12 11:04:00,52.9,30.9,29.95,North,0,1.1,3.6,43,0.00,,,0.00,WUHU216HW,2013-05-12 15:04:00,
2013-05-12 11:09:00,52.7,31.3,29.97,NNE,23,1.8,3.6,44,0.00,,,0.00,WUHU216HW,2013-05-12 15:09:00,
2013-05-12 11:14:00,52.9,31.5,29.94,WSW,248,0.7,2.0,44,0.00,,,0.00,WUHU216HW,2013-05-12 15:14:00,
2013-05-12 11:19:00,53.1,31.6,29.92,NNW,338,0.7,2.0,44,0.00,,,0.00,WUHU216HW,2013-05-12 15:19:00,
2013-05-12 11:24:00,53.5,32.0,29.91,WNW,293,0.9,2.0,44,0.00,,,0.00,WUHU216HW,2013-05-12 15:24:00,
2013-05-12 11:29:00,53.6,31.6,29.92,NNE,23,1.3,2.9,43,0.00,,,0.00,WUHU216HW,2013-05-12 15:29:00,
2013-05-12 11:34:00,53.6,31.0,29.93,West,270,1.3,2.9,42,0.00,,,0.00,WUHU216HW,2013-05-12 15:34:00,
2013-05-12 11:39:00,53.8,31.1,29.92,NNE,23,1.1,2.5,42,0.00,,,0.00,WUHU216HW,2013-05-12 15:39:00,
2013-05-12 11:44:00,54.5,31.8,29.92,NNE,23,0.9,1.1,42,0.00,,,0.00,WUHU216HW,2013-05-12 15:44:00,
2013-05-12 11:49:00,55.8,32.4,29.92,NNW,338,0.7,1.1,41,0.00,,,0.00,WUHU216HW,2013-05-12 15:49:00,
2013-05-12 11:54:00,57.2,33.1,29.93,NW,315,0.4,2.7,40,0.00,,,0.00,WUHU216HW,2013-05-12 15:54:00,
2013-05-12 11:59:00,58.7,33.0,29.92,NW,315,0.4,2.7,38,0.00,,,0.00,WUHU216HW,2013-05-12 15:59:00,
2013-05-12 12:04:00,60.1,35.7,29.93,NE,45,0.4,1.8,40,0.00,,,0.00,WUHU216HW,2013-05-12 16:04:00,
2013-05-12 12:09:00,61.0,33.0,29.93,NW,315,1.3,1.8,35,0.00,,,0.00,WUHU216HW,2013-05-12 16:09:00,
2013-05-12 12:14:00,59.4,29.4,29.92,North,0,1.1,2.0,32,0.00,,,0.00,WUHU216HW,2013-05-12 16:14:00,
2013-05-12 12:19:00,57.6,28.5,29.92,NNE,23,1.1,2.7,33,0.00,,,0.00,WUHU216HW,2013-05-12 16:19:00,
2013-05-12 12:24:00,56.9,27.9,29.92,NW,315,3.4,3.4,33,0.00,,,0.00,WUHU216HW,2013-05-12 16:24:00,
2013-05-12 12:29:00,56.5,27.5,29.93,WSW,248,1.3,3.4,33,0.00,,,0.00,WUHU216HW,2013-05-12 16:29:00,
2013-05-12 12:34:00,57.2,28.9,29.92,WNW,293,0.4,1.3,34,0.00,,,0.00,WUHU216HW,2013-05-12 16:34:00,
2013-05-12 12:39:00,57.2,26.1,29.92,North,0,0.7,1.6,30,0.00,,,0.00,WUHU216HW,2013-05-12 16:39:00,
2013-05-12 12:44:00,56.7,24.7,29.93,West,270,0.9,1.8,29,0.00,,,0.00,WUHU216HW,2013-05-12 16:44:00,
2013-05-12 12:49:00,56.5,26.2,29.93,NE,45,0.4,1.8,31,0.00,,,0.00,WUHU216HW,2013-05-12 16:49:00,
2013-05-12 12:54:00,56.7,26.3,29.92,WNW,293,0.9,1.6,31,0.00,,,0.00,WUHU216HW,2013-05-12 16:54:00,
2013-05-12 12:59:00,56.9,26.5,29.92,NNW,338,0.4,1.6,31,0.00,,,0.00,WUHU216HW,2013-05-12 16:59:00,
2013-05-12 13:04:00,56.7,25.7,29.92,NNW,338,0.4,2.9,30,0.00,,,0.00,WUHU216HW,2013-05-12 17:04:00,
2013-05-12 13:09:00,56.9,26.5,29.92,NNE,23,0.9,2.9,31,0.00,,,0.00,WUHU216HW,2013-05-12 17:09:00,
2013-05-12 13:14:00,57.2,25.1,29.92,NW,315,1.8,1.8,29,0.00,,,0.00,WUHU216HW,2013-05-12 17:14:00,
2013-05-12 13:19:00,57.4,26.3,29.92,NNW,338,0.4,1.8,30,0.00,,,0.00,WUHU216HW,2013-05-12 17:19:00,
2013-05-12 13:24:00,57.4,27.0,29.91,NNE,23,0.4,1.8,31,0.00,,,0.00,WUHU216HW,2013-05-12 17:24:00,
2013-05-12 13:29:00,57.4,27.0,29.93,West,270,0.4,2.2,31,0.00,,,0.00,WUHU216HW,2013-05-12 17:29:00,
2013-05-12 13:34:00,57.8,27.3,29.92,NE,45,0.7,2.2,31,0.00,,,0.00,WUHU216HW,2013-05-12 17:34:00,
2013-05-12 13:39:00,57.8,27.3,29.92,NW,315,0.7,2.0,31,0.00,,,0.00,WUHU216HW,2013-05-12 17:39:00,
2013-05-12 13:44:00,58.0,27.5,29.92,North,0,0.7,1.8,31,0.00,,,0.00,WUHU216HW,2013-05-12 17:44:00,
2013-05-12 13:49:00,58.0,27.5,29.92,WNW,293,0.7,1.1,31,0.00,,,0.00,WUHU216HW,2013-05-12 17:49:00,
2013-05-12 13:54:00,58.1,25.9,29.91,North,0,0.7,2.9,29,0.00,,,0.00,WUHU216HW,2013-05-12 17:54:00,
2013-05-12 13:59:00,58.1,25.9,29.92,WNW,293,0.2,2.9,29,0.00,,,0.00,WUHU216HW,2013-05-12 17:59:00,
2013-05-12 14:04:00,58.1,26.9,29.92,NNE,23,1.6,1.8,30,0.00,,,0.00,WUHU216HW,2013-05-12 18:04:00,
2013-05-12 14:09:00,58.5,27.9,29.91,NW,315,0.0,1.6,31,0.00,,,0.00,WUHU216HW,2013-05-12 18:09:00,
2013-05-12 14:14:00,59.0,27.7,29.91,NW,315,0.9,1.1,30,0.00,,,0.00,WUHU216HW,2013-05-12 18:14:00,
2013-05-12 14:19:00,58.9,26.6,29.91,NE,45,0.4,1.1,29,0.00,,,0.00,WUHU216HW,2013-05-12 18:19:00,
2013-05-12 14:24:00,59.2,27.9,29.91,North,0,0.9,1.1,30,0.00,,,0.00,WUHU216HW,2013-05-12 18:24:00,
2013-05-12 14:29:00,59.8,26.4,29.91,NE,45,1.1,1.3,28,0.00,,,0.00,WUHU216HW,2013-05-12 18:29:00,
2013-05-12 14:34:00,59.9,27.5,29.91,West,270,1.1,1.3,29,0.00,,,0.00,WUHU216HW,2013-05-12 18:34:00,
2013-05-12 14:39:00,59.9,27.5,29.91,NNE,23,0.0,2.5,29,0.00,,,0.00,WUHU216HW,2013-05-12 18:39:00,
2013-05-12 14:44:00,60.5,28.9,29.91,NW,315,0.2,2.5,30,0.00,,,0.00,WUHU216HW,2013-05-12 18:44:00,
2013-05-12 14:49:00,60.5,28.9,29.91,ENE,68,0.7,1.3,30,0.00,,,0.00,WUHU216HW,2013-05-12 18:49:00,
2013-05-12 14:54:00,60.7,29.7,29.89,NNE,23,1.1,1.1,31,0.00,,,0.00,WUHU216HW,2013-05-12 18:54:00,
2013-05-12 14:59:00,61.4,30.3,29.91,WSW,248,1.6,1.6,31,0.00,,,0.00,WUHU216HW,2013-05-12 18:59:00,
2013-05-12 15:04:00,62.1,29.4,29.90,NNW,338,1.1,1.6,29,0.00,,,0.00,WUHU216HW,2013-05-12 19:04:00,
2013-05-12 15:09:00,63.4,30.4,29.90,NNW,338,0.9,1.1,29,0.00,,,0.00,WUHU216HW,2013-05-12 19:09:00,
2013-05-12 15:14:00,63.0,31.2,29.90,NW,315,0.2,1.8,30,0.00,,,0.00,WUHU216HW,2013-05-12 19:14:00,
2013-05-12 15:19:00,63.9,32.7,29.90,West,270,0.4,1.8,31,0.00,,,0.00,WUHU216HW,2013-05-12 19:19:00,
2013-05-12 15:24:00,63.4,30.4,29.91,NNE,23,0.9,3.1,29,0.00,,,0.00,WUHU216HW,2013-05-12 19:24:00,
2013-05-12 15:29:00,61.9,30.9,29.90,NNE,23,1.1,3.1,31,0.00,,,0.00,WUHU216HW,2013-05-12 19:29:00,
2013-05-12 15:34:00,61.4,30.3,29.91,North,0,0.9,1.1,31,0.00,,,0.00,WUHU216HW,2013-05-12 19:34:00,
2013-05-12 15:39:00,61.0,30.8,29.90,NNE,23,1.3,1.3,32,0.00,,,0.00,WUHU216HW,2013-05-12 19:39:00,
2013-05-12 15:44:00,60.8,30.6,29.89,NW,315,0.4,2.5,32,0.00,,,0.00,WUHU216HW,2013-05-12 19:44:00,
2013-05-12 15:49:00,60.3,30.9,29.90,NE,45,0.4,2.5,33,0.00,,,0.00,WUHU216HW,2013-05-12 19:49:00,
2013-05-12 15:54:00,59.8,31.2,29.91,NNE,23,0.9,2.5,34,0.00,,,0.00,WUHU216HW,2013-05-12 19:54:00,
2013-05-12 15:59:00,59.8,31.2,29.89,NNE,23,1.1,2.5,34,0.00,,,0.00,WUHU216HW,2013-05-12 19:59:00,
2013-05-12 16:04:00,59.8,32.6,29.90,WSW,248,0.2,1.3,36,0.00,,,0.00,WUHU216HW,2013-05-12 20:04:00,
2013-05-12 16:09:00,59.9,32.7,29.90,NNE,23,0.4,0.7,36,0.00,,,0.00,WUHU216HW,2013-05-12 20:09:00,
2013-05-12 16:14:00,59.8,32.6,29.89,NNW,338,0.0,1.6,36,0.00,,,0.00,WUHU216HW,2013-05-12 20:14:00,
2013-05-12 16:19:00,59.8,32.6,29.89,North,0,0.4,1.6,36,0.00,,,0.00,WUHU216HW,2013-05-12 20:19:00,
2013-05-12 16:24:00,59.8,32.6,29.89,NNE,23,0.0,1.3,36,0.00,,,0.00,WUHU216HW,2013-05-12 20:24:00,
2013-05-12 16:29:00,59.9,33.4,29.89,NW,315,0.4,1.1,37,0.00,,,0.00,WUHU216HW,2013-05-12 20:29:00,
2013-05-12 16:34:00,60.1,32.9,29.89,North,0,0.4,1.1,36,0.00,,,0.00,WUHU216HW,2013-05-12 20:34:00,
2013-05-12 16:39:00,60.5,33.2,29.89,North,0,0.0,1.3,36,0.00,,,0.00,WUHU216HW,2013-05-12 20:39:00,
2013-05-12 16:44:00,60.7,33.3,29.90,West,270,0.2,1.3,36,0.00,,,0.00,WUHU216HW,2013-05-12 20:44:00,
2013-05-12 16:49:00,60.5,33.2,29.90,WNW,293,0.4,1.3,36,0.00,,,0.00,WUHU216HW,2013-05-12 20:49:00,
2013-05-12 16:54:00,59.8,32.6,29.89,NNW,338,0.2,2.5,36,0.00,,,0.00,WUHU216HW,2013-05-12 20:54:00,
2013-05-12 16:59:00,59.6,32.4,29.93,NNW,338,0.9,2.5,36,0.00,,,0.00,WUHU216HW,2013-05-12 20:59:00,
2013-05-12 17:04:00,59.6,32.4,29.94,NW,315,0.4,0.9,36,0.00,,,0.00,WUHU216HW,2013-05-12 21:04:00,
2013-05-12 17:09:00,59.8,32.6,29.95,NNE,23,0.0,0.7,36,0.00,,,0.00,WUHU216HW,2013-05-12 21:09:00,
2013-05-12 17:14:00,59.9,33.4,29.95,SSW,203,0.7,0.7,37,0.00,,,0.00,WUHU216HW,2013-05-12 21:14:00,
2013-05-12 17:19:00,59.9,33.4,29.95,West,270,0.2,0.7,37,0.00,,,0.00,WUHU216HW,2013-05-12 21:19:00,
2013-05-12 17:24:00,59.8,33.3,29.95,North,0,0.9,1.1,37,0.00,,,0.00,WUHU216HW,2013-05-12 21:24:00,
2013-05-12 17:29:00,59.4,32.9,29.95,WNW,293,0.4,1.1,37,0.00,,,0.00,WUHU216HW,2013-05-12 21:29:00,
2013-05-12 17:34:00,59.0,32.7,29.96,NNW,338,0.0,1.6,37,0.00,,,0.00,WUHU216HW,2013-05-12 21:34:00,
2013-05-12 17:39:00,58.9,33.2,29.95,NW,315,1.1,1.6,38,0.00,,,0.00,WUHU216HW,2013-05-12 21:39:00,
2013-05-12 17:44:00,58.9,33.2,29.96,SSW,203,0.2,1.1,38,0.00,,,0.00,WUHU216HW,2013-05-12 21:44:00,
2013-05-12 17:49:00,59.0,33.3,29.96,ESE,113,0.4,1.6,38,0.00,,,0.00,WUHU216HW,2013-05-12 21:49:00,
2013-05-12 17:54:00,59.4,33.7,29.96,South,180,0.4,1.6,38,0.00,,,0.00,WUHU216HW,2013-05-12 21:54:00,
2013-05-12 17:59:00,59.4,34.4,29.96,NNW,338,0.4,0.9,39,0.00,,,0.00,WUHU216HW,2013-05-12 21:59:00,
2013-05-12 18:04:00,59.8,34.7,29.97,NW,315,0.2,1.3,39,0.00,,,0.00,WUHU216HW,2013-05-12 22:04:00,
2013-05-12 18:09:00,59.8,33.9,29.96,WNW,293,0.2,1.3,38,0.00,,,0.00,WUHU216HW,2013-05-12 22:09:00,
2013-05-12 18:14:00,59.2,34.2,29.95,East,90,0.7,1.1,39,0.00,,,0.00,WUHU216HW,2013-05-12 22:14:00,
2013-05-12 18:19:00,59.0,34.0,29.96,NE,45,1.1,1.1,39,0.00,,,0.00,WUHU216HW,2013-05-12 22:19:00,
2013-05-12 18:24:00,58.9,33.2,29.97,NE,45,0.0,1.1,38,0.00,,,0.00,WUHU216HW,2013-05-12 22:24:00,
2013-05-12 18:29:00,58.7,33.8,29.96,NNW,338,1.1,1.1,39,0.00,,,0.00,WUHU216HW,2013-05-12 22:29:00,
2013-05-12 18:34:00,58.7,34.4,29.96,NNW,338,1.1,1.1,40,0.00,,,0.00,WUHU216HW,2013-05-12 22:34:00,
2013-05-12 18:39:00,58.7,34.4,29.96,North,0,1.1,1.3,40,0.00,,,0.00,WUHU216HW,2013-05-12 22:39:00,
2013-05-12 18:44:00,59.0,34.0,29.96,NNW,338,1.6,1.6,39,0.00,,,0.00,WUHU216HW,2013-05-12 22:44:00,
2013-05-12 18:49:00,59.8,34.7,29.97,WNW,293,0.4,2.0,39,0.00,,,0.00,WUHU216HW,2013-05-12 22:49:00,
2013-05-12 18:54:00,60.3,34.5,29.97,West,270,3.4,3.4,38,0.00,,,0.00,WUHU216HW,2013-05-12 22:54:00,
2013-05-12 18:59:00,59.8,34.7,29.98,WNW,293,0.0,3.4,39,0.00,,,0.00,WUHU216HW,2013-05-12 22:59:00,
2013-05-12 19:04:00,59.2,34.9,29.96,NW,315,0.4,1.3,40,0.00,,,0.00,WUHU216HW,2013-05-12 23:04:00,
2013-05-12 19:09:00,59.6,34.6,29.97,North,0,0.7,1.3,39,0.00,,,0.00,WUHU216HW,2013-05-12 23:09:00,
2013-05-12 19:14:00,58.7,33.8,29.97,NW,315,0.9,0.9,39,0.00,,,0.00,WUHU216HW,2013-05-12 23:14:00,
2013-05-12 19:19:00,57.2,33.1,29.98,NW,315,0.4,2.0,40,0.00,,,0.00,WUHU216HW,2013-05-12 23:19:00,
2013-05-12 19:24:00,56.9,33.4,29.98,NW,315,0.0,2.0,41,0.00,,,0.00,WUHU216HW,2013-05-12 23:24:00,
2013-05-12 19:29:00,56.7,33.2,29.97,West,270,0.0,1.1,41,0.00,,,0.00,WUHU216HW,2013-05-12 23:29:00,
2013-05-12 19:34:00,56.5,33.0,29.98,NW,315,0.0,3.1,41,0.00,,,0.00,WUHU216HW,2013-05-12 23:34:00,
2013-05-12 19:39:00,56.2,33.3,29.98,WNW,293,0.2,3.1,42,0.00,,,0.00,WUHU216HW,2013-05-12 23:39:00,
2013-05-12 19:44:00,55.6,32.8,29.99,NW,315,0.2,0.7,42,0.00,,,0.00,WUHU216HW,2013-05-12 23:44:00,
2013-05-12 19:49:00,54.9,32.1,29.99,NW,315,0.4,1.8,42,0.00,,,0.00,WUHU216HW,2013-05-12 23:49:00,
2013-05-12 19:54:00,54.5,31.8,29.99,NW,315,0.4,1.8,42,0.00,,,0.00,WUHU216HW,2013-05-12 23:54:00,
2013-05-12 19:59:00,54.2,32.0,29.99,NW,315,0.0,0.9,43,0.00,,,0.00,WUHU216HW,2013-05-12 23:59:00,
2013-05-12 20:04:00,53.8,32.3,30.00,NW,315,0.0,0.4,44,0.00,,,0.00,WUHU216HW,2013-05-13 00:04:00,
2013-05-12 20:09:00,53.3,31.8,30.00,West,270,0.0,1.3,44,0.00,,,0.00,WUHU216HW,2013-05-13 00:09:00,
2013-05-12 20:14:00,52.7,31.9,29.97,WNW,293,0.0,1.3,45,0.00,,,0.00,WUHU216HW,2013-05-13 00:14:00,
2013-05-12 20:19:00,52.2,30.2,29.99,West,270,1.1,1.1,43,0.00,,,0.00,WUHU216HW,2013-05-13 00:19:00,
2013-05-12 20:24:00,51.5,30.2,29.99,West,270,0.4,1.1,44,0.00,,,0.00,WUHU216HW,2013-05-13 00:24:00,
2013-05-12 20:29:00,51.1,29.9,29.99,WNW,293,0.7,0.7,44,0.00,,,0.00,WUHU216HW,2013-05-13 00:29:00,
2013-05-12 20:34:00,50.9,29.7,30.00,WNW,293,0.0,0.7,44,0.00,,,0.00,WUHU216HW,2013-05-13 00:34:00,
2013-05-12 20:39:00,50.8,30.1,29.99,NW,315,0.7,0.7,45,0.00,,,0.00,WUHU216HW,2013-05-13 00:39:00,
2013-05-12 20:44:00,50.4,29.8,30.00,NW,315,0.0,0.7,45,0.00,,,0.00,WUHU216HW,2013-05-13 00:44:00,
2013-05-12 20:50:00,50.2,29.6,30.00,SW,225,0.4,0.4,45,0.00,,,0.00,WUHU216HW,2013-05-13 00:50:00,
2013-05-12 20:55:00,49.9,29.3,30.01,SW,225,0.0,0.4,45,0.00,,,0.00,WUHU216HW,2013-05-13 00:55:00,
2013-05-12 21:00:00,49.5,28.9,30.00,NW,315,0.4,0.4,45,0.00,,,0.00,WUHU216HW,2013-05-13 01:00:00,
2013-05-12 21:05:00,49.3,28.7,30.01,WNW,293,0.0,0.4,45,0.00,,,0.00,WUHU216HW,2013-05-13 01:05:00,
2013-05-12 21:10:00,49.1,28.6,30.01,WNW,293,0.0,0.2,45,0.00,,,0.00,WUHU216HW,2013-05-13 01:10:00,
2013-05-12 21:15:00,48.8,28.3,30.01,NW,315,0.0,0.4,45,0.00,,,0.00,WUHU216HW,2013-05-13 01:15:00,
2013-05-12 21:20:00,48.6,28.6,30.00,SSE,158,0.0,0.4,46,0.00,,,0.00,WUHU216HW,2013-05-13 01:20:00,
2013-05-12 21:25:00,48.2,28.3,30.00,SSE,158,0.2,0.4,46,0.00,,,0.00,WUHU216HW,2013-05-13 01:25:00,
2013-05-12 21:30:00,48.1,28.1,30.02,SSE,158,0.0,0.2,46,0.00,,,0.00,WUHU216HW,2013-05-13 01:30:00,
2013-05-12 21:35:00,47.9,27.9,30.01,SSE,158,0.0,0.0,46,0.00,,,0.00,WUHU216HW,2013-05-13 01:35:00,
2013-05-12 21:40:00,47.5,28.2,30.02,SE,135,0.0,0.0,47,0.00,,,0.00,WUHU216HW,2013-05-13 01:40:00,
2013-05-12 21:45:00,47.2,27.8,30.01,SSE,158,0.0,0.0,47,0.00,,,0.00,WUHU216HW,2013-05-13 01:45:00,
2013-05-12 21:50:00,47.0,27.6,30.02,SSE,158,0.0,0.0,47,0.00,,,0.00,WUHU216HW,2013-05-13 01:50:00,
2013-05-12 21:55:00,46.6,27.9,30.02,SSE,158,0.0,0.0,48,0.00,,,0.00,WUHU216HW,2013-05-13 01:55:00,
2013-05-12 22:00:00,46.3,27.5,30.02,SSE,158,0.0,0.0,48,0.00,,,0.00,WUHU216HW,2013-05-13 02:00:00,
2013-05-12 22:05:00,45.9,27.3,30.01,SSE,158,0.0,0.0,48,0.00,,,0.00,WUHU216HW,2013-05-13 02:05:00,
2013-05-12 22:10:00,45.7,27.1,30.02,SSE,158,0.0,0.0,48,0.00,,,0.00,WUHU216HW,2013-05-13 02:10:00,
2013-05-12 22:15:00,45.5,26.9,30.02,SSE,158,0.0,0.0,48,0.00,,,0.00,WUHU216HW,2013-05-13 02:15:00,
2013-05-12 22:20:00,45.4,26.7,30.02,SW,225,0.4,0.4,48,0.00,,,0.00,WUHU216HW,2013-05-13 02:20:00,
2013-05-12 22:25:00,45.2,26.6,30.02,WSW,248,0.0,0.4,48,0.00,,,0.00,WUHU216HW,2013-05-13 02:25:00,
2013-05-12 22:30:00,45.2,27.1,30.02,WSW,248,0.0,0.4,49,0.00,,,0.00,WUHU216HW,2013-05-13 02:30:00,
2013-05-12 22:35:00,45.0,27.0,30.02,WSW,248,0.0,0.0,49,0.00,,,0.00,WUHU216HW,2013-05-13 02:35:00,
2013-05-12 22:40:00,45.0,27.0,30.02,WSW,248,0.0,0.0,49,0.00,,,0.00,WUHU216HW,2013-05-13 02:40:00,
2013-05-12 22:45:00,45.0,27.0,30.02,WSW,248,0.0,0.0,49,0.00,,,0.00,WUHU216HW,2013-05-13 02:45:00,
2013-05-12 22:50:00,45.0,27.0,30.02,WSW,248,0.0,0.0,49,0.00,,,0.00,WUHU216HW,2013-05-13 02:50:00,
2013-05-12 22:55:00,44.8,26.8,30.02,WSW,248,0.0,0.0,49,0.00,,,0.00,WUHU216HW,2013-05-13 02:55:00,
2013-05-12 23:00:00,44.6,26.6,30.02,WSW,248,0.0,0.0,49,0.00,,,0.00,WUHU216HW,2013-05-13 03:00:00,
2013-05-12 23:05:00,44.6,26.6,30.02,WSW,248,0.0,0.0,49,0.00,,,0.00,WUHU216HW,2013-05-13 03:05:00,
2013-05-12 23:10:00,44.6,26.6,30.02,SW,225,0.0,0.0,49,0.00,,,0.00,WUHU216HW,2013-05-13 03:10:00,
2013-05-12 23:15:00,44.3,26.3,30.03,SW,225,0.0,0.0,49,0.00,,,0.00,WUHU216HW,2013-05-13 03:15:00,
2013-05-12 23:20:00,44.3,26.8,30.02,SW,225,0.0,0.0,50,0.00,,,0.00,WUHU216HW,2013-05-13 03:20:00,
2013-05-12 23:25:00,44.3,26.8,30.02,West,270,0.0,0.0,50,0.00,,,0.00,WUHU216HW,2013-05-13 03:25:00,
2013-05-12 23:30:00,44.3,26.8,30.02,West,270,0.0,0.0,50,0.00,,,0.00,WUHU216HW,2013-05-13 03:30:00,
2013-05-12 23:35:00,44.1,26.7,30.02,West,270,0.0,0.2,50,0.00,,,0.00,WUHU216HW,2013-05-13 03:35:00,
2013-05-12 23:40:00,43.7,26.4,30.02,West,270,0.0,0.7,50,0.00,,,0.00,WUHU216HW,2013-05-13 03:40:00,
2013-05-12 23:45:00,43.6,26.6,30.02,West,270,0.2,0.7,51,0.00,,,0.00,WUHU216HW,2013-05-13 03:45:00,
2013-05-12 23:50:00,43.7,26.8,30.02,SSE,158,1.1,1.1,51,0.00,,,0.00,WUHU216HW,2013-05-13 03:50:00,
2013-05-12 23:55:00,43.7,26.8,30.00,SW,225,0.0,1.1,51,0.00,,,0.00,WUHU216HW,2013-05-13 03:55:00,